Theta_e
343 344 344 347 350 352 354 354 353 353 352 353 353 353 352 349 347 347 348 347 344 345 345 345 345 345 345 347 345 349 351 349 352 350 344 346 347 349 351 350 352 353
342 343 343 346 349 348 350 353 354 354 351 350 352 353 352 347 344 344 345 345 345 346 345 344 346 345 346 349 347 349 350 346 351 354 347 345 349 351 351 352 353 351
342 343 342 345 349 349 350 352 352 352 353 351 350 350 350 349 347 344 344 345 346 350 350 347 348 347 346 346 345 348 350 347 352 355 348 345 349 353 354 354 355 354
341 343 345 348 351 350 351 353 352 352 353 354 351 350 351 352 351 346 343 344 344 348 351 347 348 350 347 345 345 346 348 348 349 350 347 345 346 349 354 356 355 356
341 342 346 349 351 352 352 353 353 353 353 354 354 353 351 350 350 349 347 345 343 345 348 346 345 348 346 344 344 346 349 351 351 348 345 346 347 349 354 355 353 354
344 340 341 345 349 351 352 353 353 354 354 353 354 354 353 351 350 351 350 349 349 350 352 352 350 350 351 347 344 346 350 354 354 350 345 346 349 352 355 354 350 349
347 344 341 343 347 350 351 352 353 353 353 353 354 354 355 354 352 351 350 350 352 354 354 355 353 351 353 352 347 344 345 348 349 346 343 345 347 347 350 351 348 345
350 349 347 346 348 351 351 352 353 353 353 353 354 354 354 355 354 353 351 350 353 354 353 354 352 348 352 355 353 348 347 350 351 347 343 345 345 343 345 348 346 344
350 351 351 350 350 351 351 352 352 353 354 353 353 354 354 354 353 354 353 350 351 351 348 349 349 347 351 356 353 348 347 351 354 353 348 347 348 348 347 349 349 346
350 350 350 351 351 350 351 351 352 353 354 354 353 353 353 354 352 354 353 349 348 349 347 346 347 347 350 353 352 350 347 347 349 350 349 348 349 350 351 352 351 349
348 350 350 350 351 350 350 350 351 352 353 354 354 353 353 354 352 352 352 348 347 351 349 347 346 347 348 350 353 354 351 349 349 348 346 346 346 346 346 346 346 347
346 347 348 349 349 349 350 351 351 351 352 353 354 353 353 353 353 352 352 348 345 348 351 349 347 347 347 347 351 354 353 352 352 351 349 348 346 346 346 346 346 347
345 346 347 349 350 350 350 351 351 351 352 352 353 353 353 352 352 352 352 351 347 345 349 349 346 346 346 344 347 352 354 353 353 354 353 352 350 350 351 351 351 350
345 347 347 349 351 350 349 350 351 351 352 352 353 354 353 352 351 350 351 352 350 348 349 350 347 345 345 343 344 347 351 352 353 353 353 353 353 353 352 352 352 352
345 346 347 347 349 349 348 348 349 351 351 352 353 353 353 352 351 350 350 350 351 351 350 350 350 349 349 348 346 347 350 352 353 353 353 353 353 353 352 352 352 351
346 347 346 346 347 348 349 348 348 348 349 350 350 350 351 352 352 352 351 350 350 351 350 349 349 350 351 347 344 345 348 351 351 352 352 351 351 352 352 351 351 350
347 348 348 348 347 347 348 349 348 347 346 345 345 345 345 347 347 348 350 350 350 349 349 349 348 348 349 344 338 340 344 346 349 350 350 349 350 351 351 350 350 349
345 346 346 347 347 346 347 350 350 349 347 343 340 339 339 339 339 341 343 345 348 349 348 348 346 347 348 345 339 340 343 344 346 348 349 350 350 351 351 350 349 349
345 345 345 345 345 345 345 348 349 349 349 347 344 339 336 336 335 336 337 338 342 347 348 347 347 347 349 346 339 338 342 343 345 347 349 349 350 351 351 351 351 350
347 347 346 344 345 346 346 347 348 349 349 350 349 345 342 340 337 335 335 334 338 342 344 344 347 348 348 343 336 335 337 340 343 346 347 349 350 349 350 350 352 351
348 348 347 346 345 347 348 348 348 349 349 349 350 349 347 346 344 341 341 339 340 343 345 347 350 349 345 338 334 335 336 339 343 346 347 349 350 350 350 350 350 349
348 348 348 348 348 348 349 349 348 349 349 349 350 350 349 348 347 347 349 348 346 347 350 353 353 350 346 342 339 339 341 344 347 348 349 350 350 351 351 350 348 346
347 347 347 348 348 349 349 349 349 349 350 350 350 351 351 351 349 349 350 351 350 350 351 353 353 349 348 347 346 344 346 348 349 350 351 351 351 351 352 350 348 346
342 344 345 345 345 346 347 348 349 349 350 350 351 351 352 351 350 351 351 351 352 352 352 353 352 350 348 349 348 347 347 347 349 350 351 352 352 352 352 350 349 347
339 339 339 339 339 341 343 346 347 348 348 348 349 349 351 351 351 351 351 352 352 350 350 352 352 350 350 350 349 348 348 348 349 350 352 354 354 354 354 354 353 351
329 328 326 327 330 332 334 338 342 343 343 344 345 347 348 349 349 350 351 351 350 348 349 350 351 351 351 351 350 350 350 349 349 351 353 353 353 353 354 354 353 352
Wind_Speed
16 15 15 13 13 12 11 9 9 8 8 7 6 6 7 8 8 9 8 8 7 7 7 6 6 6 5 5 5 5 4 4 3 4 3 3 3 3 4 4 4 4
16 16 16 15 14 15 14 11 9 9 8 8 7 6 7 8 8 9 8 8 7 7 6 6 6 6 5 5 5 5 5 4 3 3 4 4 4 4 4 4 4 4
17 16 16 16 14 14 13 11 11 10 8 8 8 7 7 7 8 9 8 8 8 7 7 6 6 5 6 6 5 5 5 4 3 4 5 4 4 4 4 4 4 4
18 17 16 15 14 13 12 12 12 11 9 8 8 8 8 8 8 9 9 9 8 8 8 7 7 6 6 6 5 5 5 5 5 5 5 5 5 5 4 4 4 4
18 18 17 16 15 14 13 13 12 11 10 9 9 9 10 9 9 8 8 9 8 8 8 7 7 7 7 6 6 5 4 4 5 6 5 5 5 4 3 4 4 4
18 18 18 17 16 15 15 14 13 12 11 11 10 10 10 9 9 9 9 9 8 8 7 7 7 7 7 7 7 6 5 5 7 7 6 5 5 4 4 5 5 5
16 17 18 17 16 16 16 15 14 13 12 11 11 11 10 9 9 9 10 9 8 9 8 8 9 9 8 7 7 7 7 6 8 8 6 6 6 6 6 6 7 6
16 15 16 16 16 16 16 16 15 14 13 13 12 12 11 11 10 10 10 10 9 10 10 9 10 10 8 7 7 8 7 6 7 8 7 7 7 7 7 7 8 7
15 15 15 16 16 17 16 16 16 14 14 14 13 12 12 12 11 10 11 11 11 11 11 10 11 10 9 9 9 9 9 8 7 8 8 8 8 8 8 8 8 8
16 16 15 16 16 17 17 17 16 15 14 14 14 13 12 12 12 12 13 13 12 12 12 11 11 10 10 10 10 10 10 9 9 9 9 9 9 9 8 8 9 9
17 16 16 16 16 16 16 17 16 15 14 14 14 14 13 13 13 14 14 14 13 12 12 12 11 11 11 11 10 10 10 9 9 10 10 10 9 10 10 10 10 10
18 17 16 17 16 16 16 16 16 16 15 15 14 15 14 13 13 14 14 15 14 13 12 12 12 12 12 12 11 10 10 10 10 10 10 10 10 10 10 10 10 11
20 19 17 17 16 16 16 15 15 16 16 15 15 15 15 14 14 14 13 14 14 14 13 13 13 13 13 13 13 12 11 11 11 11 11 11 11 11 11 11 11 11
20 19 18 17 17 17 17 16 16 15 15 16 16 16 16 15 15 14 13 13 13 13 13 13 14 14 14 14 14 13 13 12 12 12 12 12 12 12 12 12 12 12
21 20 19 19 18 18 18 17 17 16 16 16 16 17 16 15 15 15 14 14 13 14 14 14 14 14 14 14 14 13 13 12 12 12 12 13 13 13 13 13 13 14
21 21 21 20 19 19 18 18 18 18 17 18 18 18 18 17 17 16 15 15 14 14 15 15 15 14 15 17 17 15 14 13 13 13 14 14 15 15 15 15 15 15
23 22 21 20 20 20 19 19 19 19 19 20 20 20 20 21 20 19 18 16 15 15 15 15 15 15 17 19 18 16 16 16 15 15 15 15 16 16 16 16 16 15
26 26 25 23 22 22 21 19 19 20 20 21 23 23 22 23 23 22 21 19 17 16 16 16 15 16 19 21 19 17 17 17 17 15 14 14 14 15 16 16 16 16
25 27 27 25 23 23 23 22 21 20 20 20 21 22 23 24 24 23 23 22 20 18 18 17 16 16 20 22 21 19 19 19 19 18 16 15 15 15 16 16 16 17
22 24 25 25 24 23 24 24 23 22 21 20 19 20 21 22 23 23 23 22 21 20 21 19 17 18 22 24 22 21 21 21 21 21 19 17 17 17 17 16 17 18
22 23 24 25 25 25 24 24 24 23 23 22 22 22 22 21 20 20 21 21 21 20 19 18 19 22 25 25 23 21 22 23 23 22 21 20 19 19 18 19 20 20
21 23 23 24 26 26 25 25 25 25 25 25 24 23 23 23 22 20 20 20 21 21 20 17 19 24 25 23 22 22 22 23 23 22 22 22 21 19 19 20 21 21
14 16 17 19 22 24 25 25 24 23 24 25 25 23 21 21 22 21 20 19 20 22 23 20 22 27 26 24 24 24 23 23 23 22 22 22 21 21 20 21 22 22
7 7 8 10 12 13 16 18 19 20 21 23 23 22 19 17 18 19 19 19 20 20 18 19 24 28 27 25 25 24 23 22 23 22 22 21 21 20 20 21 22 23
5 4 4 3 4 6 9 13 14 16 18 20 20 22 21 17 15 17 18 19 19 15 13 16 22 24 23 22 22 22 22 22 22 21 19 17 16 16 16 15 16 19
8 8 7 6 5 3 2 5 9 11 13 14 15 17 19 16 14 16 17 17 15 13 14 17 17 17 16 17 18 19 19 19 19 18 16 15 14 14 14 12 11 14
Wind_Direction
218 217 215 215 215 213 211 210 211 212 213 213 216 220 220 217 212 209 210 211 209 208 206 203 206 206 208 216 210 207 224 220 222 248 250 244 234 217 228 232 233 240
216 217 216 214 217 218 214 210 213 215 217 215 212 215 220 220 218 215 214 212 211 215 216 210 211 213 213 222 219 215 232 231 221 248 249 238 231 220 225 232 234 241
213 216 217 216 217 221 218 218 220 215 216 221 216 212 212 215 221 220 218 216 212 214 222 221 219 222 224 230 230 223 235 238 222 238 243 231 223 221 227 233 237 247
215 215 216 216 217 220 219 221 224 218 214 219 217 210 205 207 219 222 219 220 216 214 222 224 219 221 226 231 236 233 238 246 240 239 239 232 225 219 223 234 230 235
219 218 216 215 215 217 220 220 221 220 218 217 214 213 213 214 217 220 221 223 223 222 225 229 225 224 229 233 237 239 241 255 262 254 238 232 233 226 232 245 236 232
223 222 219 218 216 217 219 219 220 220 219 219 215 214 219 223 220 216 219 220 219 221 222 228 230 225 229 235 235 235 230 226 246 254 246 239 240 233 237 248 245 241
225 226 224 222 221 221 220 219 221 220 217 217 216 215 216 222 223 218 218 216 211 214 214 219 229 223 221 234 237 239 236 229 241 252 248 246 247 243 242 248 249 248
225 226 228 227 224 224 224 221 221 222 219 216 216 218 218 218 222 219 220 217 210 215 217 218 229 228 220 230 240 241 241 240 251 259 255 251 254 252 249 251 254 255
224 224 227 228 225 224 224 222 221 221 221 220 217 220 220 219 218 215 221 222 214 220 227 226 233 233 224 228 237 238 236 233 239 249 253 253 254 257 258 259 261 261
225 223 224 226 225 224 223 222 221 220 222 222 220 219 219 220 217 213 222 227 221 224 232 232 234 235 229 232 238 242 242 238 238 242 246 249 249 252 255 255 259 261
227 224 223 224 225 224 224 223 221 220 222 222 220 219 217 218 218 215 221 228 226 227 233 234 233 233 231 231 234 241 245 244 245 247 246 247 248 250 252 254 256 256
228 226 223 223 225 225 225 224 223 220 221 222 220 219 217 216 218 218 221 228 227 226 230 233 232 231 232 231 228 233 240 240 243 248 250 250 251 253 256 258 259 258
231 229 225 223 224 225 224 224 225 222 221 223 221 220 219 217 217 218 221 226 229 227 227 231 232 230 231 232 227 226 233 237 239 244 249 252 254 254 255 256 258 259
233 233 230 226 225 225 223 222 224 224 222 223 223 222 223 221 220 220 221 225 230 230 229 231 234 235 235 236 235 233 235 240 242 243 247 250 253 254 254 253 254 255
230 233 234 232 229 228 227 224 224 225 225 225 224 224 224 224 223 223 224 226 228 231 233 234 235 237 237 236 237 237 239 243 247 249 251 252 254 255 255 254 255 255
227 231 235 237 235 232 230 228 228 228 227 228 229 228 226 226 225 224 225 227 230 233 236 237 236 237 238 239 238 235 235 239 244 249 251 252 254 257 257 257 257 257
225 227 233 238 240 237 231 226 227 230 231 232 233 233 230 230 230 228 228 229 233 236 237 237 237 237 243 248 246 240 238 240 244 250 255 257 257 259 259 259 259 259
228 230 233 236 239 240 235 229 225 227 232 236 236 236 235 234 234 233 232 232 233 235 237 236 236 237 244 250 249 242 241 242 243 247 253 256 257 259 260 259 259 259
230 233 235 237 240 240 238 234 229 225 230 236 238 239 240 240 239 237 237 237 236 234 235 235 236 239 244 248 246 241 239 239 240 242 247 251 253 255 257 259 259 259
231 232 234 236 239 239 237 236 233 229 229 233 236 238 239 240 239 237 238 241 240 238 238 238 236 237 242 247 247 241 239 238 238 240 245 250 252 252 254 256 256 257
231 232 231 230 231 234 236 235 234 232 232 234 235 235 235 235 235 235 236 238 238 237 239 240 238 237 242 249 250 245 241 240 239 240 244 249 251 253 254 254 253 255
228 231 232 231 230 232 235 237 238 238 238 238 237 236 236 237 237 234 233 233 232 231 230 230 236 240 242 245 247 246 244 243 244 246 247 249 251 253 255 256 257 258
212 219 224 227 228 230 232 236 239 241 241 240 238 233 232 237 239 237 234 233 233 232 231 231 237 243 245 244 245 246 246 248 250 252 254 255 256 255 255 258 260 260
165 180 195 208 214 217 220 222 226 229 231 233 231 224 221 226 232 232 231 232 231 229 229 235 240 245 246 245 246 247 248 249 250 251 254 256 258 260 261 261 261 260
123 129 151 177 188 199 209 211 212 216 219 221 219 216 213 212 215 219 222 228 232 229 227 237 244 246 244 242 244 246 247 246 246 247 250 252 255 259 256 251 255 260
110 108 100 93 101 125 195 224 227 226 222 217 213 213 213 211 213 221 226 233 238 233 229 234 240 243 243 242 245 247 245 243 241 241 244 248 250 253 255 255 258 262